Regional Weather Roundup
Issued by NWS

Home | Current Version | Previous Version | Text Only | Print | Product List | Glossary Off
Versions: 1 2 3 4 5 6 7 8 9 10 11 12 13 14 15 16 17 18 19 20 21 22 23 24 25 26 27 28 29 30 31 32 33 34 35 36 37 38 39 40 41 42 43 44 45 46 47 48 49 50

000
ASUS43 KOAX 202010
RWRNE

WEATHER ROUNDUP FOR NEBRASKA
NATIONAL WEATHER SERVICE OMAHA NE
200 PM CST SAT JAN 20 2018

NOTES: SATELLITE DATA IS BEING USED TO AUGMENT CLOUD COVER ABOVE
       12000 FEET.
       "FAIR" INDICATES FEW OR NO CLOUDS BELOW 12,000 FEET WITH NO
       SIGNIFICANT WEATHER AND/OR OBSTRUCTIONS TO VISIBILITY.


NEZ001>004-019>022-054>056-202100-
NEBRASKA PANHANDLE

CITY           SKY/WX    TMP DP  RH WIND       PRES   REMARKS
SCOTTSBLUFF    CLOUDY    36  31  82 NE9       29.84S WCI  29
ALLIANCE       CLOUDY    32  31  96 NE14      29.82F WCI  22
CHADRON        CLOUDY    36  33  89 N6        29.88F WCI  31
GORDON         CLOUDY    37  32  81 NE9       29.86R WCI  31
KIMBALL        CLOUDY    34  29  82 N13       29.80F WCI  25
SIDNEY         CLOUDY    36  29  75 NE12      29.79F WCI  28
$$

NEZ057>060-069>072-079>082-202100-
SOUTHWEST NEBRASKA

CITY           SKY/WX    TMP DP  RH WIND       PRES   REMARKS
NORTH PLATTE   SUNNY     48  30  49 NE17      29.78F
IMPERIAL       SUNNY     50  30  46 NE16      29.76F
LEXINGTON      MOSUNNY   48  34  57 NE14      29.76F
MCCOOK         SUNNY     49  31  49 NE14      29.74F
OGALLALA       PTSUNNY   46  31  55 NE13      29.79F
$$

NEZ005>010-023>029-035>040-094-202100-
NORTH CENTRAL NEBRASKA

CITY           SKY/WX    TMP DP  RH WIND       PRES   REMARKS
VALENTINE      CLOUDY    42  34  73 N8        29.87F
AINSWORTH      CLOUDY    40  32  73 N9        29.87S WCI  34
BROKEN BOW     SUNNY     45  33  63 N14       29.79F
O`NEILL        PTSUNNY   42  34  73 N12       29.86R
ORD            SUNNY     51  30  44 N12       29.79F
THEDFORD       PTSUNNY   41  33  73 N9        29.84F
$$

NEZ041-046>049-061>064-073>077-083>087-202100-
SOUTH CENTRAL NEBRASKA

CITY           SKY/WX    TMP DP  RH WIND       PRES   REMARKS
GRAND ISLAND   SUNNY     46  36  68 NE13      29.78F
AURORA         SUNNY     48  34  57 NE10      29.77F
HASTINGS       SUNNY     46  31  55 E9        29.76F
HEBRON         CLOUDY    43  40  88 N3        29.78F
HOLDREGE       SUNNY     44  35  70 NE16G22   29.75F
KEARNEY        SUNNY     45  36  70 NE12      29.77F
YORK           SUNNY     48  32  53 E9        29.79F
$$

NEZ011>018-030>034-042>045-202100-
NORTHEAST NEBRASKA

CITY           SKY/WX    TMP DP  RH WIND       PRES   REMARKS
NORFOLK        SUNNY     68  31  25 E9        29.80F
ALBION         SUNNY     51  33  49 NE8       29.81F
BLAIR          SUNNY     48  31  52 SE5       29.82S
COLUMBUS       SUNNY     52  33  48 E14       29.80F
FREMONT        SUNNY     48  32  54 E3        29.83R
TEKAMAH        SUNNY     51  33  50 SE7       29.82F
WAYNE          CLOUDY    52  31  45 NE8       29.82F
$$

NEZ050>053-065>068-078-088>093-202100-
SOUTHEAST NEBRASKA

CITY           SKY/WX    TMP DP  RH WIND       PRES   REMARKS
LINCOLN        SUNNY     49  38  65 CALM      29.82F
OMAHA EPPLEY   MOSUNNY   45  33  63 S7        29.82F
BEATRICE       CLOUDY    48  44  84 E6        29.79F
FALLS CITY     CLOUDY    51  43  74 S8        29.82F
NEBRASKA CITY  CLOUDY    44  40  88 CALM      29.83S
PLATTSMOUTH    MOSUNNY   47  41  81 CALM      29.82F
$$

NEZ044-045-051>053-067-202100-
OMAHA AREA

CITY           SKY/WX    TMP DP  RH WIND       PRES   REMARKS
OMAHA EPPLEY   MOSUNNY   45  33  63 S7        29.82F
BLAIR          SUNNY     48  31  52 SE5       29.82S
FREMONT        SUNNY     48  32  54 E3        29.83R
MILLARD        SUNNY     48  36  62 SE5       29.82F
OFFUTT AFB     SUNNY     45  39  80 CALM      29.82F
PLATTSMOUTH    MOSUNNY   47  41  81 CALM      29.82F
WAHOO          FAIR      47  28  47 E3        29.81F
$$




USA.gov is the U.S. government's official web portal to all federal, state and local government web resources and services.